UAL1887 KLAX-PHOG

Flight info

Callsign UAL1887
Flight time N/A
Altitude 34000
Route SUMMR2 DINTY DUETS R576 DUSAC/N0451F360 R576 DENNS LNDHY1
Aircraft B38M/M-SDE1FGHILORVWXY/HB1

Departure

Time N/A
Airport Los Angeles International Airport (KLAX)

Arrival

Time 2026-04-21 21:27
Airport Kahului International Airport (PHOG)
Time Latitude Longitude Altitude Speed Heading
2026-04-21 20:36 24.22131 -150.10450 34113 ft 467 kts 246°
2026-04-21 20:36 24.19151 -150.16782 34129 ft 468 kts 246°
2026-04-21 20:37 24.16164 -150.23099 34133 ft 469 kts 246°
2026-04-21 20:37 24.13158 -150.29455 34132 ft 469 kts 246°
2026-04-21 20:38 24.10167 -150.35765 34133 ft 469 kts 246°
2026-04-21 20:38 24.07156 -150.42111 34132 ft 469 kts 246°
2026-04-21 20:39 24.04154 -150.48431 34124 ft 469 kts 246°
2026-04-21 20:39 24.01125 -150.54793 34136 ft 471 kts 246°
2026-04-21 20:40 23.98107 -150.61128 34124 ft 471 kts 246°
2026-04-21 20:40 23.92417 -150.73037 34135 ft 471 kts 246°
2026-04-21 20:41 23.86352 -150.85705 34123 ft 475 kts 247°
2026-04-21 20:41 23.80222 -150.98507 34121 ft 474 kts 247°
2026-04-21 20:42 23.74104 -151.11217 34120 ft 478 kts 248°
2026-04-21 20:42 23.67874 -151.24097 34120 ft 478 kts 248°
2026-04-21 20:43 23.61711 -151.36874 34095 ft 478 kts 248°
2026-04-21 20:43 23.55445 -151.49801 34116 ft 483 kts 248°
2026-04-21 20:44 23.49128 -151.62754 34118 ft 483 kts 248°
2026-04-21 20:44 23.42893 -151.75575 34117 ft 480 kts 249°
2026-04-21 20:45 23.36611 -151.88431 34118 ft 481 kts 247°
2026-04-21 20:45 23.30296 -152.01307 34116 ft 484 kts 249°
2026-04-21 20:46 23.23963 -152.14183 34118 ft 483 kts 248°
2026-04-21 20:46 23.17609 -152.27056 34106 ft 483 kts 249°
2026-04-21 20:47 23.11272 -152.39874 34113 ft 483 kts 249°
2026-04-21 20:47 23.04900 -152.52749 34086 ft 483 kts 249°
2026-04-21 20:48 22.98588 -152.65459 34112 ft 479 kts 248°
2026-04-21 20:48 22.92176 -152.78169 34116 ft 480 kts 248°
2026-04-21 20:49 22.85788 -152.90874 34094 ft 477 kts 248°
2026-04-21 20:49 22.79471 -153.03435 34107 ft 477 kts 248°
2026-04-21 20:50 22.73069 -153.16036 34095 ft 477 kts 248°
2026-04-21 20:50 22.67767 -153.26517 34103 ft 476 kts 248°
2026-04-21 20:51 22.61346 -153.39112 34108 ft 477 kts 248°
2026-04-21 20:51 22.55001 -153.51593 34097 ft 474 kts 248°
2026-04-21 20:52 22.48623 -153.64080 34099 ft 474 kts 248°
2026-04-21 20:52 22.42224 -153.76593 34088 ft 474 kts 248°
2026-04-21 20:53 22.35788 -153.89056 34094 ft 476 kts 245°
2026-04-21 20:53 22.28809 -154.01143 34101 ft 476 kts 245°
2026-04-21 20:54 22.22006 -154.13023 34094 ft 476 kts 245°
2026-04-21 20:54 22.18538 -154.19126 34098 ft 476 kts 245°
2026-04-21 20:55 22.15080 -154.25172 34100 ft 475 kts 245°
2026-04-21 20:55 22.11598 -154.31253 34095 ft 475 kts 245°
2026-04-21 20:56 22.08138 -154.37287 34081 ft 475 kts 244°
2026-04-21 20:56 22.04659 -154.43348 34098 ft 474 kts 244°
2026-04-21 20:57 22.01180 -154.49403 34098 ft 474 kts 244°
2026-04-21 20:57 21.97723 -154.55412 34098 ft 474 kts 244°
2026-04-21 20:58 21.94395 -154.61541 34105 ft 467 kts 249°
2026-04-21 20:58 21.92909 -154.64546 33970 ft 453 kts 248°
2026-04-21 20:58 21.91420 -154.67523 33472 ft 450 kts 248°
2026-04-21 20:59 21.89927 -154.70491 32881 ft 449 kts 248°
2026-04-21 20:59 21.88441 -154.73440 32342 ft 447 kts 248°
2026-04-21 20:59 21.86957 -154.76382 31830 ft 444 kts 248°
2026-04-21 20:59 21.85503 -154.79262 31256 ft 443 kts 248°
2026-04-21 21:00 21.84027 -154.82184 30664 ft 443 kts 248°
2026-04-21 21:00 21.82550 -154.85105 30171 ft 440 kts 248°
2026-04-21 21:00 21.81096 -154.87979 29658 ft 433 kts 248°
2026-04-21 21:00 21.79682 -154.90774 29168 ft 426 kts 248°
2026-04-21 21:01 21.78273 -154.93555 28718 ft 418 kts 248°
2026-04-21 21:01 21.76890 -154.96286 28272 ft 411 kts 248°
2026-04-21 21:01 21.75530 -154.98969 27819 ft 405 kts 247°
2026-04-21 21:01 21.74192 -155.01608 27383 ft 398 kts 247°
2026-04-21 21:02 21.72889 -155.04177 26973 ft 392 kts 247°
2026-04-21 21:02 21.71587 -155.06741 26566 ft 387 kts 247°
2026-04-21 21:02 21.70303 -155.09269 26162 ft 382 kts 247°
2026-04-21 21:02 21.69055 -155.11726 25768 ft 377 kts 247°
2026-04-21 21:03 21.67802 -155.14192 25372 ft 372 kts 246°
2026-04-21 21:03 21.66562 -155.16629 24986 ft 368 kts 246°
2026-04-21 21:03 21.65340 -155.19032 24610 ft 364 kts 246°
2026-04-21 21:03 21.64133 -155.21404 24234 ft 360 kts 246°
2026-04-21 21:04 21.62941 -155.23745 23874 ft 364 kts 246°
2026-04-21 21:04 21.61717 -155.26146 23460 ft 368 kts 246°
2026-04-21 21:04 21.60485 -155.28564 23038 ft 368 kts 245°
2026-04-21 21:04 21.59259 -155.30969 22649 ft 366 kts 245°
2026-04-21 21:05 21.58041 -155.33358 22284 ft 363 kts 245°
2026-04-21 21:05 21.56827 -155.35737 21919 ft 360 kts 245°
2026-04-21 21:05 21.55626 -155.38088 21553 ft 358 kts 245°
2026-04-21 21:05 21.54443 -155.40404 21197 ft 356 kts 245°
2026-04-21 21:06 21.53255 -155.42730 20846 ft 354 kts 245°
2026-04-21 21:06 21.52071 -155.45046 20490 ft 352 kts 245°
2026-04-21 21:06 21.50896 -155.47342 20133 ft 349 kts 245°
2026-04-21 21:06 21.49741 -155.49600 19787 ft 347 kts 245°
2026-04-21 21:07 21.48578 -155.51872 19437 ft 345 kts 245°
2026-04-21 21:07 21.47424 -155.54125 19089 ft 343 kts 245°
2026-04-21 21:07 21.46278 -155.56362 18743 ft 341 kts 245°
2026-04-21 21:07 21.45149 -155.58565 18403 ft 339 kts 245°
2026-04-21 21:08 21.44016 -155.60773 18025 ft 336 kts 245°
2026-04-21 21:08 21.42887 -155.62973 17649 ft 334 kts 245°
2026-04-21 21:08 21.41770 -155.65150 17256 ft 332 kts 245°
2026-04-21 21:08 21.40669 -155.67294 16890 ft 327 kts 245°
2026-04-21 21:09 21.39576 -155.69423 16555 ft 322 kts 245°
2026-04-21 21:09 21.38501 -155.71514 16227 ft 316 kts 245°
2026-04-21 21:09 21.37462 -155.73536 15912 ft 311 kts 245°
2026-04-21 21:09 21.36427 -155.75550 15592 ft 305 kts 244°
2026-04-21 21:10 21.35398 -155.77550 15278 ft 307 kts 244°
2026-04-21 21:10 21.34354 -155.79579 14951 ft 313 kts 244°
2026-04-21 21:10 21.33296 -155.81634 14634 ft 313 kts 244°
2026-04-21 21:10 21.32245 -155.83675 14314 ft 313 kts 244°
2026-04-21 21:11 21.31204 -155.85695 13998 ft 312 kts 244°
2026-04-21 21:11 21.30160 -155.87722 13648 ft 310 kts 243°
2026-04-21 21:11 21.29116 -155.89747 13298 ft 307 kts 243°
2026-04-21 21:11 21.28084 -155.91748 12953 ft 305 kts 243°
2026-04-21 21:12 21.27072 -155.93709 12649 ft 302 kts 243°
2026-04-21 21:12 21.26059 -155.95673 12341 ft 299 kts 243°
2026-04-21 21:12 21.25055 -155.97618 12032 ft 296 kts 243°
2026-04-21 21:12 21.24068 -155.99529 11728 ft 294 kts 243°
2026-04-21 21:13 21.23080 -156.01441 11426 ft 291 kts 243°
2026-04-21 21:13 21.22100 -156.03339 11125 ft 289 kts 242°
2026-04-21 21:13 21.21128 -156.05219 10858 ft 286 kts 242°
2026-04-21 21:13 21.20171 -156.07070 10607 ft 283 kts 242°
2026-04-21 21:14 21.19206 -156.08936 10345 ft 288 kts 242°
2026-04-21 21:14 21.18259 -156.10767 10203 ft 281 kts 242°
2026-04-21 21:14 21.17161 -156.12492 10045 ft 282 kts 225°
2026-04-21 21:14 21.15593 -156.13800 9802 ft 288 kts 218°
2026-04-21 21:15 21.13973 -156.15077 9473 ft 289 kts 217°
2026-04-21 21:15 21.12358 -156.16336 9146 ft 289 kts 217°
2026-04-21 21:15 21.10729 -156.17597 8824 ft 287 kts 217°
2026-04-21 21:15 21.09113 -156.18844 8507 ft 285 kts 217°
2026-04-21 21:16 21.07516 -156.20074 8204 ft 284 kts 217°
2026-04-21 21:16 21.05923 -156.21300 7955 ft 280 kts 217°
2026-04-21 21:16 21.04363 -156.22499 7817 ft 271 kts 217°
2026-04-21 21:16 21.02852 -156.23660 7674 ft 261 kts 217°
2026-04-21 21:17 21.01407 -156.24760 7437 ft 256 kts 216°
2026-04-21 21:17 20.99952 -156.25863 7132 ft 256 kts 216°
2026-04-21 21:17 20.98495 -156.26965 6832 ft 255 kts 216°
2026-04-21 21:17 20.97043 -156.28066 6540 ft 255 kts 216°
2026-04-21 21:18 20.95592 -156.29166 6224 ft 255 kts 216°
2026-04-21 21:18 20.94164 -156.30248 5922 ft 254 kts 215°
2026-04-21 21:18 20.92719 -156.31343 5620 ft 253 kts 215°
2026-04-21 21:18 20.91284 -156.32430 5334 ft 253 kts 215°
2026-04-21 21:19 20.89847 -156.33519 5083 ft 250 kts 215°
2026-04-21 21:19 20.88436 -156.34553 5043 ft 241 kts 213°
2026-04-21 21:19 20.87060 -156.35524 4778 ft 241 kts 213°
2026-04-21 21:19 20.85666 -156.36508 4540 ft 238 kts 213°
2026-04-21 21:20 20.84276 -156.37488 4206 ft 239 kts 213°
2026-04-21 21:20 20.82895 -156.38463 3898 ft 237 kts 213°
2026-04-21 21:20 20.81518 -156.39434 3594 ft 236 kts 213°
2026-04-21 21:20 20.80160 -156.40392 3298 ft 235 kts 213°
2026-04-21 21:21 20.78802 -156.41349 3070 ft 229 kts 213°
2026-04-21 21:21 20.77496 -156.42270 2951 ft 219 kts 214°
2026-04-21 21:21 20.76250 -156.43149 2799 ft 212 kts 214°
2026-04-21 21:21 20.75029 -156.44019 2451 ft 212 kts 218°
2026-04-21 21:22 20.74171 -156.45233 2432 ft 208 kts 252°
2026-04-21 21:22 20.74114 -156.46773 2425 ft 210 kts 283°
2026-04-21 21:22 20.74530 -156.48277 2422 ft 209 kts 290°
2026-04-21 21:22 20.75071 -156.49626 2387 ft 193 kts 305°
2026-04-21 21:23 20.76067 -156.50526 2361 ft 187 kts 334°
2026-04-21 21:23 20.77273 -156.51044 2449 ft 187 kts 348°
2026-04-21 21:23 20.78550 -156.50974 2372 ft 185 kts 15°
2026-04-21 21:23 20.79748 -156.50453 2192 ft 184 kts 27°
2026-04-21 21:24 20.80765 -156.49755 1970 ft 167 kts 34°
2026-04-21 21:24 20.81657 -156.49072 1800 ft 152 kts 34°
2026-04-21 21:24 20.82515 -156.48425 1605 ft 150 kts 34°
2026-04-21 21:24 20.83363 -156.47790 1404 ft 148 kts 33°
2026-04-21 21:25 20.84208 -156.47160 1217 ft 148 kts 33°
2026-04-21 21:25 20.85043 -156.46534 1031 ft 149 kts 33°
2026-04-21 21:25 20.85891 -156.45899 814 ft 147 kts 33°
2026-04-21 21:25 20.86724 -156.45277 641 ft 145 kts 33°
2026-04-21 21:26 20.87554 -156.44656 429 ft 146 kts 32°
2026-04-21 21:26 20.88374 -156.44038 235 ft 143 kts 32°
2026-04-21 21:26 20.89175 -156.43439 53 ft 139 kts 32°
2026-04-21 21:26 20.89809 -156.42978 47 ft 75 kts 35°
2026-04-21 21:27 20.90000 -156.42906 46 ft 14 kts 308°
2026-04-21 21:27 20.89979 -156.43000 45 ft 16 kts 220°
2026-04-21 21:27 20.89878 -156.43075 47 ft 19 kts 214°
2026-04-21 21:27 20.89763 -156.43161 46 ft 17 kts 215°
2026-04-21 21:28 20.89687 -156.43218 47 ft 15 kts 215°
2026-04-21 21:28 20.89602 -156.43282 48 ft 11 kts 215°
2026-04-21 21:28 20.89479 -156.43374 47 ft 10 kts 214°
2026-04-21 21:29 20.89418 -156.43419 46 ft 11 kts 214°
2026-04-21 21:29 20.89370 -156.43468 47 ft 8 kts 231°
2026-04-21 21:29 20.89355 -156.43523 47 ft 7 kts 274°
2026-04-21 21:29 20.89371 -156.43553 47 ft 5 kts 307°
2026-04-21 21:30 20.89387 -156.43576 47 ft 3 kts 307°
2026-04-21 21:30 20.89399 -156.43592 44 ft 2 kts 306°
2026-04-21 21:30 20.89403 -156.43598 45 ft 1 kts 305°
2026-04-21 21:30 20.89403 -156.43599 45 ft 0 kts 305°